This demonstration page uses our WeatherBlox Daily Observations layout. Learn more.

Left ArrowRight Arrow

Hourly Observations for April 19, 2021

Temp ( °F °C ) Dew Point ( °F °C ) Humidity (%) Winds ( mph kmh ) Pressure ( in mb ) Visibility ( mi km ) Precip ( " mm )
12:03 am 00:03 Partly Cloudy 48 9 36 2 62 62 N 15 24 29.98 1015 10 16 0.00 0.00
12:56 am 00:56 Clear 44 6.7 37 2.8 76 76 NNE 20 31 30.00 1016 10 16 0.00 0.00
1:56 am 01:56 Clear 39 3.9 34 1.1 82 82 N 16 26 30.02 1017 10 16 0.00 0.00
2:56 am 02:56 Clear 36 2.2 33 0.6 89 89 N 14 22 30.02 1017 10 16 0.00 0.00
3:56 am 03:56 Mostly Cloudy 35 1.7 32 0 89 89 NNE 16 26 30.02 1017 10 16 0.00 0.00
4:18 am 04:18 Cloudy 36 2 30 -1 81 81 NNE 21 33 30.09 1019 10 16 0.00 0.00
4:28 am 04:28 Cloudy 36 2 30 -1 81 81 NNE 16 26 30.10 1019 10 16 0.00 0.00
4:56 am 04:56 Cloudy 35 1.7 30 -1.1 82 82 N 24 39 30.04 1017 10 16 0.00 0.00
5:36 am 05:36 Partly Cloudy 32 0 28 -2 87 87 NNE 15 24 30.14 1021 10 16 0.00 0.00
5:48 am 05:48 Mostly Cloudy 34 1 28 -2 81 81 N 14 22 30.13 1020 10 16 0.00 0.00
5:56 am 05:56 Mostly Cloudy 33 0.6 29 -1.7 85 85 N 20 31 30.07 1018 10 16 0.00 0.00
6:14 am 06:14 Cloudy 34 1 28 -2 81 81 N 22 35 30.15 1021 10 16 0.00 0.00
6:56 am 06:56 Cloudy 32 0 27 -2.8 82 82 N 24 39 30.09 1019 10 16 0.00 0.00
7:56 am 07:56 Cloudy 30 -1.1 23 -5 75 75 NNE 29 46 30.13 1020 10 16 0.00 0.00
8:22 am 08:22 Cloudy 30 -1 23 -5 75 75 N 28 44 30.23 1024 10 16 0.00 0.00
8:56 am 08:56 Cloudy 30 -1.1 23 -5 75 75 N 25 41 30.17 1022 10 16 0.00 0.00
9:31 am 09:31 Cloudy 30 -1 23 -5 75 75 N 23 37 30.25 1024 10 16 0.00 0.00
9:56 am 09:56 Cloudy 30 -1.1 22 -5.6 72 72 N 28 44 30.18 1022 10 16 0.00 0.00
10:56 am 10:56 Windy with Snow Likely 30 -1.1 22 -5.6 72 72 N 24 39 30.19 1022 10 16 0.00 0.00
11:04 am 11:04 Windy with Snow Likely 28 -2 25 -4 86 86 NNE 23 37 30.27 1025 7 11 0.00 0.00
11:56 am 11:56 Cloudy with Light Wintry Mix 31 -0.6 24 -4.4 76 76 N 22 35 30.19 1023 10 16 0.00 0.00
12:56 pm 12:56 Windy with Snow Likely 32 0 24 -4.4 73 73 N 25 41 30.20 1023 9 14 0.00 0.00
1:42 pm 13:42 Windy with Snow Likely 30 -1 27 -3 86 86 N 22 35 30.26 1025 3 4 0.00 0.00
1:51 pm 13:51 Windy with Snow Likely 30 -1 28 -2 93 93 N 22 35 30.26 1025 2 2 0.00 0.00
1:56 pm 13:56 Windy with Snow Likely 32 0 28 -2.2 85 85 N 20 31 30.20 1023 2 3 0.00 0.00
2:05 pm 14:05 Windy with Snow Likely 30 -1 28 -2 93 93 N 20 31 30.26 1025 3 4 0.00 0.00
2:12 pm 14:12 Windy with Snow Likely 30 -1 28 -2 93 93 N 22 35 30.26 1025 4 6 0.00 0.00
2:25 pm 14:25 Windy with Snow Likely 30 -1 28 -2 93 93 N 21 33 30.26 1025 2 3 0.00 0.00
2:27 pm 14:27 Windy with Snow Likely 30 -1 27 -3 86 86 N 20 31 30.26 1025 2 3 0.00 0.00
2:43 pm 14:43 Windy with Snow Likely 30 -1 27 -3 86 86 N 22 35 30.26 1025 2 3 0.00 0.00
2:56 pm 14:56 Windy with Snow Likely 29 -1.7 27 -2.8 92 92 N 20 31 30.22 1023 3 5 0.00 0.00
3:56 pm 15:56 Cloudy with Light Snow 31 -0.6 28 -2.2 89 89 NNW 13 20 30.22 1023 3 5 0.00 0.00
4:10 pm 16:10 Cloudy with Light Snow 32 0 27 -3 80 80 N 18 30 30.26 1025 7 11 0.00 0.00
4:56 pm 16:56 Cloudy with Light Snow 32 0 27 -2.8 82 82 N 16 26 30.21 1023 8 13 0.00 0.00
5:32 pm 17:32 Cloudy 34 1 25 -4 70 70 NNE 15 24 30.22 1023 10 16 0.00 0.00
5:56 pm 17:56 Cloudy 33 0.6 23 -5 66 66 N 16 26 30.20 1023 10 16 0.00 0.00
6:56 pm 18:56 Cloudy 34 1.1 21 -6.1 59 59 N 18 30 30.21 1023 10 16 0.00 0.00
7:48 pm 19:48 Cloudy with Light Snow 30 -1 27 -3 86 86 N 17 28 30.27 1025 3 4 0.00 0.00
7:56 pm 19:56 Windy with Snow Likely 29 -1.7 27 -2.8 92 92 N 21 33 30.23 1024 2 3 0.00 0.00
8:05 pm 20:05 Cloudy with Light Snow 28 -2 27 -3 93 93 N 14 22 30.28 1025 3 4 0.00 0.00
8:15 pm 20:15 Cloudy with Light Snow 28 -2 27 -3 93 93 N 13 20 30.28 1025 5 8 0.00 0.00
8:25 pm 20:25 Cloudy with Light Snow 28 -2 27 -3 93 93 N 12 19 30.28 1025 9 14 0.00 0.00
8:56 pm 20:56 Cloudy with Light Snow 29 -1.7 26 -3.3 89 89 N 9 15 30.24 1024 5 8 0.00 0.00
9:36 pm 21:36 Cloudy with Light Snow 28 -2 27 -3 93 93 WNW 6 9 30.32 1027 3 4 0.00 0.00
9:44 pm 21:44 Cloudy with Light Snow 28 -2 27 -3 93 93 WNW 8 13 30.33 1027 5 8 0.00 0.00
9:56 pm 21:56 Cloudy with Light Snow 29 -1.7 27 -2.8 92 92 WNW 9 15 30.28 1025 3 4 0.00 0.00
10:03 pm 22:03 Cloudy with Light Snow 28 -2 27 -3 93 93 WNW 10 17 30.33 1027 3 5 0.00 0.00
10:20 pm 22:20 Cloudy with Light Snow 28 -2 27 -3 93 93 WNW 9 15 30.32 1027 2 3 0.00 0.00
10:36 pm 22:36 Cloudy with Light Snow 28 -2 27 -3 93 93 WNW 8 13 30.33 1027 3 5 0.00 0.00
10:56 pm 22:56 Cloudy with Light Snow 29 -1.7 27 -2.8 92 92 WNW 7 11 30.29 1026 5 8 0.00 0.00
11:15 pm 23:15 Cloudy with Light Snow 28 -2 27 -3 93 93 WNW 8 13 30.34 1027 9 14 0.00 0.00
11:56 pm 23:56 Cloudy with Light Snow 30 -1.1 25 -3.9 82 82 N 12 19 30.28 1025 9 14 0.00 0.00

Powered by AerisWeather